Waarnemingen

Advertentie
Mijn weer
Nikkaluokta, Zweden (2036): temperatuur & dauwpunt: 11.10.2018 05:00:00 - 17.10.2018 05:00:00 (CEST)Nikkaluokta, Zweden (2036): windsnelheid & windstoten: 11.10.2018 05:00:00 - 17.10.2018 05:00:00 (CEST)Nikkaluokta, Zweden (2036): windrichting: 11.10.2018 05:00:00 - 17.10.2018 05:00:00 (CEST)Nikkaluokta, Zweden (2036): luchtdruk: 11.10.2018 05:00:00 - 17.10.2018 05:00:00 (CEST)Nikkaluokta, Zweden (2036): zicht: 11.10.2018 05:00:00 - 17.10.2018 05:00:00 (CEST)Nikkaluokta, Zweden (2036): neerslag: 11.10.2018 05:00:00 - 17.10.2018 05:00:00 (CEST)
Datum & Tijd tt [°C] td [°C] ff [km/u] ff [kn] fx [km/u] fx [kn] dd ppp [hPa] vv [km] rr [mm]
17.10.2018 05:00:00 -0,6 -1,3 4 2 15 8 NNW 1011,5 50 0,0
17.10.2018 04:00:00 0,0 -0,8 4 2 14 8 WNW 1012,5 50 0,0
17.10.2018 03:00:00 1,0 -0,8 7 4 14 8 ZO 1012,7 50 0,0
17.10.2018 02:00:00 -0,3 -1,1 4 2 14 8 WNW 1013,8 50 0,0
17.10.2018 01:00:00 1,3 -0,6 3 2 14 8 ZO 1014,2 50 0,0
17.10.2018 00:00:00 1,5 -0,6 8 5 - - ZO 1014,5 50 0,0
16.10.2018 23:00:00 0,7 -1,1 4 2 - - NNO 1014,9 50 0,0
16.10.2018 22:00:00 0,8 -2,1 - - - - - 1015,1 50 0,0
16.10.2018 21:00:00 4,3 -0,7 - - - - - 1014,8 50 0,0
16.10.2018 20:00:00 4,2 -0,8 - - - - - 1014,3 50 0,0
16.10.2018 19:00:00 4,4 -1,0 - - - - - 1014,0 50 0,0
16.10.2018 18:00:00 4,6 -0,4 - - - - - 1013,6 50 0,0
16.10.2018 17:00:00 4,6 -0,8 - - - - - 1013,2 50 0,0
16.10.2018 16:00:00 5,5 -0,8 - - - - - 1012,6 50 0,0
16.10.2018 15:00:00 6,2 -1,6 - - - - - 1011,9 50 0,0
16.10.2018 14:00:00 6,6 -1,3 - - - - - 1011,1 8 0,0
16.10.2018 13:00:00 6,5 -1,4 - - - - - 1010,5 44 0,0
16.10.2018 12:00:00 6,3 -0,9 - - - - - 1009,5 46 0,0
16.10.2018 11:00:00 5,4 -0,7 - - - - - 1009,5 50 0,0
16.10.2018 10:00:00 5,2 -0,2 - - - - - 1009,1 50 0,0
16.10.2018 09:00:00 3,0 -0,5 - - - - - 1009,3 50 0,0
16.10.2018 08:00:00 -0,3 -0,4 - - - - - 1009,6 50 0,0
16.10.2018 07:00:00 -1,9 -2,2 - - - - - 1009,9 50 0,0
16.10.2018 06:00:00 -2,4 -2,5 6 3 11 6 W 1009,7 50 0,0
16.10.2018 05:00:00 -3,6 -3,7 5 3 14 7 WZW 1010,2 50 0,0
16.10.2018 04:00:00 -3,2 -3,3 6 3 14 7 ZW 1010,3 50 0,0
16.10.2018 03:00:00 -2,1 -2,4 4 2 - - W 1010,7 50 0,0
16.10.2018 02:00:00 -1,6 -2,2 3 1 - - W 1010,7 50 0,0
16.10.2018 01:00:00 -1,4 -2,1 - - - - - 1011,0 50 0,0
16.10.2018 00:00:00 -0,6 -1,9 - - - - - 1011,1 50 0,0
15.10.2018 23:00:00 0,3 -1,3 - - - - - 1011,4 50 0,0
15.10.2018 22:00:00 1,0 -1,2 - - - - - 1011,5 50 0,0
15.10.2018 21:00:00 0,1 -1,7 - - - - - 1011,8 50 0,0
15.10.2018 20:00:00 2,8 -0,7 - - - - - 1011,6 50 0,0
15.10.2018 19:00:00 2,6 -1,0 - - - - - 1011,3 50 0,0
15.10.2018 18:00:00 4,7 -0,9 - - - - - 1011,0 50 0,0
15.10.2018 17:00:00 4,6 -0,8 - - - - - 1011,3 50 0,0
15.10.2018 16:00:00 5,8 -1,4 - - - - - 1010,7 50 0,0
15.10.2018 15:00:00 6,4 -0,6 - - - - - 1010,1 50 0,0
15.10.2018 14:00:00 6,6 -0,6 - - - - - 1009,9 50 0,0
15.10.2018 13:00:00 7,1 -1,6 - - - - - 1009,4 41 0,0
15.10.2018 12:00:00 7,1 -1,3 - - - - - 1008,8 41 0,0
15.10.2018 11:00:00 5,9 0,2 - - - - - 1007,9 50 0,0
15.10.2018 10:00:00 6,1 -0,9 - - - - - 1006,5 50 0,0
15.10.2018 09:00:00 5,4 -1,1 - - - - - 1005,2 50 0,0
15.10.2018 08:00:00 5,7 -0,2 - - - - - 1004,0 50 0,0
15.10.2018 07:00:00 6,7 0,8 - - - - - 1002,6 50 0,0
15.10.2018 06:00:00 7,8 1,4 - - - - - 1000,9 50 0,0
15.10.2018 05:00:00 8,1 3,2 - - - - - 999,5 50 0,0
15.10.2018 04:00:00 9,5 4,7 - - - - - 998,1 50 0,0
15.10.2018 03:00:00 10,3 5,1 - - - - - 997,5 50 0,0
15.10.2018 02:00:00 10,9 5,2 - - - - - 997,5 27 0,0
15.10.2018 01:00:00 11,6 5,0 - - - - - 997,1 50 0,0
15.10.2018 00:00:00 12,5 4,9 - - - - - 996,9 50 0,0
14.10.2018 23:00:00 12,2 5,6 - - - - - 997,1 50 0,0
14.10.2018 22:00:00 10,3 9,4 - - - - - 998,1 50 0,0
14.10.2018 21:00:00 9,2 9,1 - - - - - 998,3 12 0,0
14.10.2018 20:00:00 8,7 8,3 - - - - - 997,7 50 0,0
14.10.2018 19:00:00 10,5 8,6 - - - - - 997,7 50 0,0
14.10.2018 18:00:00 10,7 8,6 - - - - - 998,9 50 0,0
14.10.2018 17:00:00 11,3 8,9 - - - - - 998,9 50 0,0
14.10.2018 16:00:00 12,5 8,4 - - - - - 999,4 17 0,0
14.10.2018 15:00:00 12,4 8,5 - - - - - 999,5 50 0,0
14.10.2018 14:00:00 8,2 7,3 - - - - - 1000,5 50 0,0
14.10.2018 13:00:00 8,0 7,4 - - - - - 1001,3 50 0,0
14.10.2018 12:00:00 6,7 6,1 - - - - - 1002,2 50 0,0
14.10.2018 11:00:00 5,8 5,7 - - - - - 1002,8 48 0,0
14.10.2018 10:00:00 4,2 4,1 0 0 - - N 1003,9 16 0,0
14.10.2018 09:00:00 3,9 3,8 - - - - - 1004,0 11 0,0
14.10.2018 08:00:00 3,4 3,3 - - - - - 1004,6 10 0,0
14.10.2018 07:00:00 3,8 3,7 - - - - - 1005,0 19 0,0
14.10.2018 06:00:00 3,6 3,5 - - - - - 1005,4 18 0,0
14.10.2018 05:00:00 3,3 3,2 - - - - - 1006,1 12 0,0
14.10.2018 04:00:00 3,4 3,3 - - - - - 1005,9 11 0,0
14.10.2018 03:00:00 3,4 3,3 - - - - - 1006,8 15 0,0
14.10.2018 02:00:00 2,7 2,6 - - - - - 1007,1 12 0,1
14.10.2018 01:00:00 3,1 3,0 - - - - - 1007,0 15 0,0
14.10.2018 00:00:00 3,8 3,7 - - - - - 1006,8 49 0,0
13.10.2018 23:00:00 4,1 4,0 - - - - - 1006,4 50 0,0
13.10.2018 22:00:00 4,1 4,0 - - - - - 1006,6 48 0,0
13.10.2018 21:00:00 2,1 2,0 - - - - - 1007,4 17 0,0
13.10.2018 20:00:00 1,8 1,7 - - - - - 1007,8 15 0,0
13.10.2018 19:00:00 1,7 1,6 - - - - - 1008,1 11 0,0
13.10.2018 18:00:00 2,2 2,1 - - - - - 1007,9 15 0,0
13.10.2018 17:00:00 2,9 2,8 - - - - - 1007,6 33 0,0
13.10.2018 16:00:00 3,4 3,3 - - - - - 1007,6 46 0,0
13.10.2018 15:00:00 3,8 3,7 - - - - - 1007,5 47 0,0
13.10.2018 14:00:00 3,9 3,7 - - - - - 1007,7 46 0,0
13.10.2018 13:00:00 3,4 3,3 - - - - - 1006,0 39 0,0
13.10.2018 12:00:00 3,7 3,6 - - - - - 1007,6 49 0,0
13.10.2018 11:00:00 3,1 3,0 - - - - - 1007,5 46 0,0
13.10.2018 10:00:00 2,8 2,7 - - - - - 1008,3 50 0,0
13.10.2018 09:00:00 4,7 4,1 - - - - - 1007,0 50 0,0
13.10.2018 08:00:00 2,5 2,4 - - - - - 1008,0 50 0,0
13.10.2018 07:00:00 1,6 1,5 - - - - - 1008,6 50 0,0
13.10.2018 06:00:00 0,8 0,7 - - - - - 1010,0 25 0,0
13.10.2018 05:00:00 0,7 0,6 - - - - - 1010,8 18 0,0
13.10.2018 04:00:00 1,6 1,5 - - - - - 1011,2 48 0,0
13.10.2018 03:00:00 1,2 1,1 - - - - - 1012,2 0,8 0,0
13.10.2018 02:00:00 1,4 1,3 - - - - - 1012,6 43 0,0
13.10.2018 01:00:00 1,8 1,7 - - - - - 1013,0 11 0,0
13.10.2018 00:00:00 2,1 2,0 - - - - - 1014,0 26 0,0
12.10.2018 23:00:00 1,8 1,7 - - - - - 1015,6 10 0,0
12.10.2018 22:00:00 1,8 1,7 - - - - - 1016,3 8 0,0
12.10.2018 21:00:00 1,8 1,7 - - - - - 1016,7 10 0,0
12.10.2018 20:00:00 1,8 1,7 - - - - - 1017,0 12 0,0
12.10.2018 19:00:00 1,8 1,7 - - - - - 1017,5 1,4 0,0
12.10.2018 18:00:00 1,9 1,8 - - - - - 1018,2 1,0 0,0
12.10.2018 17:00:00 2,2 2,1 - - - - - 1018,8 0,5 0,0
12.10.2018 16:00:00 2,3 2,2 - - - - - 1019,5 12 0,0
12.10.2018 15:00:00 2,3 2,2 - - 9 5 - 1020,0 13 0,0
12.10.2018 14:00:00 2,1 2,0 5 3 10 5 ZO 1020,5 7 0,1
12.10.2018 13:00:00 1,7 1,6 4 2 10 5 O 1021,0 3,5 0,1
12.10.2018 12:00:00 1,3 1,2 3 2 7 4 WZW 1021,4 3,8 0,1
12.10.2018 11:00:00 0,8 0,7 3 2 7 4 W 1021,6 2,8 0,0
12.10.2018 10:00:00 -0,1 -0,2 3 2 9 5 WNW 1021,7 50 0,0
12.10.2018 09:00:00 -0,5 -0,6 4 2 9 5 NW 1021,7 4,8 0,0
12.10.2018 08:00:00 -0,7 -0,8 4 2 8 4 WNW 1021,4 1,1 0,0
12.10.2018 07:00:00 -1,3 -1,4 4 2 9 5 Z 1021,6 0,1 0,0
12.10.2018 06:00:00 -1,2 -1,3 4 2 10 5 WZW 1021,5 0,2 0,0
12.10.2018 05:00:00 -1,2 -1,3 6 3 10 5 W 1021,5 0,2 0,0
12.10.2018 04:00:00 -1,7 -1,8 4 2 8 4 WNW 1021,3 40 0,0
12.10.2018 03:00:00 -0,7 -0,8 3 2 8 4 ZZW 1021,6 41 0,0
12.10.2018 02:00:00 0,7 0,6 5 3 11 6 ZZO 1021,8 49 0,0
12.10.2018 01:00:00 2,0 1,9 3 1 11 6 ZW 1021,5 50 0,0
12.10.2018 00:00:00 2,6 2,2 3 2 10 5 NO 1021,4 50 0,0
11.10.2018 23:00:00 3,2 2,5 6 3 17 9 WNW 1021,5 50 0,0
11.10.2018 22:00:00 3,2 2,6 6 3 17 9 WNW 1021,5 50 0,0
11.10.2018 21:00:00 3,5 2,8 10 5 14 7 NW 1021,7 50 0,0
11.10.2018 20:00:00 1,9 1,0 4 2 10 5 WZW 1022,3 50 0,0
11.10.2018 19:00:00 2,8 1,2 8 4 10 5 NW 1022,1 50 0,0
11.10.2018 18:00:00 2,4 0,9 4 2 16 9 W 1022,0 50 0,0
11.10.2018 17:00:00 3,0 1,0 0 0 16 9 N 1021,7 50 0,0
11.10.2018 16:00:00 3,1 0,7 5 3 11 6 O 1021,7 50 0,0
11.10.2018 15:00:00 3,4 0,6 6 4 11 6 NNW 1021,7 50 0,0
11.10.2018 14:00:00 4,2 0,9 5 3 7 4 NNW 1021,5 50 0,0
11.10.2018 13:00:00 4,4 1,1 3 2 8 5 W 1021,5 47 0,0
11.10.2018 12:00:00 3,4 0,4 3 2 11 6 ZW 1022,0 45 0,0
11.10.2018 11:00:00 2,0 0,2 3 2 11 6 NNW 1022,4 35 0,0
11.10.2018 10:00:00 1,0 0,0 7 4 11 6 W 1022,5 30 0,0
11.10.2018 09:00:00 -0,2 -0,5 6 3 9 5 WNW 1022,4 50 0,0
11.10.2018 08:00:00 -1,9 -2,0 5 3 8 5 WNW 1022,3 50 0,0
11.10.2018 07:00:00 -1,7 -1,8 3 2 11 6 NNW 1021,9 50 0,0
11.10.2018 06:00:00 -0,9 -1,5 5 3 15 8 W 1021,7 50 0,0
11.10.2018 05:00:00 -0,7 -1,4 7 4 16 9 WNW 1021,3 50 0,0

tt = temperatuur
td = dauwpunt
ff = windsnelheid
fx = windstoten
dd = windrichting
ppp = luchtdruk
vv = zicht
rr = neerslag

Weerstations in de omgeving